Location: Staunton
(38.1490°N, 79.0720°W)
Time: 14:23:20
(UTC-04:00)

ISS - Pass Details

Date: 26 May 2017
Orbit: 402 x 408 km, 51.6° (Epoch: 29 May)

Event Time Altitude Azimuth Distance (km) Brightness Sun altitude
Rises 05:14:34 0° 294° (WNW) 2,321 -0.3 -8.0°
Reaches altitude 10° 05:17:05 10° 275° (W) 1,455 -1.5 -7.6°
Maximum altitude 05:19:23 18° 230° (SW) 1,069 -2.3 -7.3°
Drops below altitude 10° 05:21:40 10° 185° (S) 1,446 -1.4 -6.9°
Sets 05:24:10 0° 165° (SSE) 2,298 -0.2 -6.5°
